星链-36531(STARLINK-36531)

导读 | 豆包AI

STARLINK-36531是由美国发射的星链系列卫星,于2026年1月18日成功发射入轨,属于SpaceX星链项目的组网卫星,该项目旨在为全球提供高速低延迟互联网覆盖。这颗卫星进一步扩充了星链星座的规模,提升了星座全球网络服务的容量和覆盖能力,推动了全球卫星互联网基础设施的建设。

基本信息
目录编号:
67513
目录名称:
STARLINK-36531
国际标识:
2026-012W
轨道中心:
EARTH
卫星名称:
星链-36531
卫星全名:
星链-36531(STARLINK-36531)
卫星状态:
在轨 (已飞行76 天)
发射日期:
2026-01-18 UTC
国别 :
美国 (US)
星等 :
--
轨道信息
数据来源 国际轨道数据
星历时间: 2026-04-03T22:54:25+0800
9小时前
查看轨道信息
半长轴: 6861.116km
偏心率: 0.0002848
轨道倾角: 43.003°
近地点辐角 259.311°
升交点赤经 173.695°
平近点角 100.742°
近地点: 481.024km
远地点: 484.934km
周期: 94.265分钟
每日圈数: 15.276037
详细信息
固有亮度:
5
最大亮度:
2.5
卫星平台:
Starlink V1.0
覆盖范围:
全球
运营商:
太空探索技术公司
运营商所在国:
美国
制造商(研发单位):
太空探索技术公司
制造商所在国:
美国
使用方式:
暂无
卫星简介
Starlink 计划是 SpaceX 推出的全球卫星互联网项目,通过发射低轨道卫星,为全球尤其是偏远地区提供高速、低延迟的互联网服务。自 2019 年起,Starlink 已部署数千颗卫星,旨在缩小全球数字鸿沟,推动互联网普及。该项目还为军事、航空等行业提供通信支持,带来广泛经济效益。
2D轨道图
3D轨道图
轨道高度分析图
轨道倾角分析图
轨道综合分析图
查看轨道综合分析图